Simultaneous Nadir Overpasses (SNOs) Predictions

Prediction of SNOs between GOES-15 and LANDSAT-8 Satellite Orbit:

Table of predicted SNOs for the next 14.0 days since TLE Epoch: 3/30/2024
Index Date Time (GOES-15) GOES-15 Lat,Lon LANDSAT-8 Lat,Lon Distance(km) Time Diff (sec)
1 03/31/2024 17:53:10 0.08, 61.18 0.72, 64.26 349.44 80
2 04/01/2024 06:14:26 -0.08, 61.23 0.35, 59.09 242.23 80
3 04/03/2024 06:04:54 -0.09, 61.25 -0.25, 62.05 91.39 80
4 04/03/2024 18:26:19 0.09, 61.21 -0.80, 56.85 494.94 80
5 04/05/2024 05:52:42 -0.09, 61.27 -0.88, 65.01 425.08 80
6 04/05/2024 18:14:06 0.09, 61.23 -0.23, 59.81 161.28 80
7 04/07/2024 17:59:14 0.09, 61.25 0.43, 62.76 172.58 80
8 04/08/2024 06:20:29 -0.10, 61.30 0.67, 57.61 419.61 80
9 04/10/2024 06:08:16 -0.10, 61.33 0.04, 60.57 86.11 80
10 04/12/2024 05:58:42 -0.11, 61.36 -0.57, 63.53 246.93 80
11 04/12/2024 18:20:06 0.11, 61.32 -0.51, 58.34 339.13 80
